Location: Aucun
(42.9667°N, 0.1667°W)
Time: 23:26:54
(UTC+00:00)

PSLV R/B - Pass Details

Date: 17 February 2020
Orbit: 505 x 578 km, 97.8° (Epoch: 05 April)

Event Time Altitude Azimuth Distance (km) Brightness Sun altitude
Rises 05:23:49 0° 10° (N) 2,623 7.4 -17.5°
Reaches altitude 10° 05:25:55 10° 8° (N) 1,738 6.4 -17.1°
Maximum altitude 05:29:38 70° 285° (WNW) 551 3.5 -16.5°
Drops below altitude 10° 05:33:23 10° 201° (SSW) 1,753 6.2 -15.8°
Sets 05:35:30 0° 199° (SSW) 2,647 7.1 -15.4°
